Terminal Aerodrome Forecast
Issued by NWS Albany, NY

Home | Current Version | Previous Version | Text Only | Print | Product List | Glossary On
Versions: 1 2 3 4 5 6 7 8 9 10 11 12 13 14 15 16 17 18 19
000
FTUS41 KALY 272210 AAA
TAFALB
TAF AMD
KALB 272210Z 2722/2818 18007KT P6SM -RA FEW045 OVC130
     FM280100 18010G15KT P6SM VCSH BKN060
     FM280400 18007KT 5SM BR BKN080
     FM281000 18004KT 5SM BR SCT010 OVC035
     FM281400 21013KT P6SM SCT035 OVC080=

USA.gov is the U.S. government's official web portal to all federal, state and local government web resources and services.